Danville, IN

7:39 PM EDT on July 25, 2017 (GMT -0400)
Vermilion County

Weather History for KDNV - December, 2012

Change the Weather History Date:

Friday, December 7, 2012

  Actual Average (KLAF) Record (KLAF)
Temperature  
Mean Temperature 44 °F -  
Max Temperature 46 °F 40 °F 64 °F (1966)
Min Temperature 42 °F 27 °F -7 °F (1977)
Degree Days  
Heating Degree Days 21    
Moisture  
Dew Point 44 °F    
Average Humidity 95    
Maximum Humidity 100    
Minimum Humidity 82    
Precipitation  
Precipitation 0.41 in - - ()
Sea Level Pressure  
Sea Level Pressure 29.87 in    
Wind  
Wind Speed 5 mph (NE)    
Max Wind Speed 10 mph    
Max Gust Speed -    
Visibility 3 miles    
Events Rain    
Averages and records for this station are not official NWS values.
T = Trace of Precipitation, MM = Missing Value Source: NWS Daily Summary

Daily Weather History Graph

Daily Weather History Graph

Search for Another Location

Airport or City:

Trip Planner

Search our weather history database for the weather conditions in past years. The results will help you decide how hot, cold, wet, or windy it might be!

Date:

Astronomy

Dec. 07, 2012 Rise Set
Actual Time 6:59 AM CST 4:24 PM CST
Civil Twilight 6:29 AM CST 4:54 PM CST
Nautical Twilight 5:55 AM CST 5:28 PM CST
Astronomical Twilight 5:22 AM CST 6:01 PM CST
Moon 12:18 AM CST (12/7) 12:21 PM CST (12/7)
Length of Visible Light 10h 25m
Length of Day
9h 24m
Last Quarter, 38% of the Moon is Illuminated
Dec 7
Last Quarter
Dec 13
New
Dec 19
First Quarter
Dec 28
Full
Jan 4
Last Quarter

Hourly Weather History & Observations

Time (CST) Temp. Windchill Dew Point Humidity Pressure Visibility Wind Dir Wind Speed Gust Speed Precip Events Conditions
12:15 AM 44.8 °F 41.6 °F 39.7 °F 82% 29.93 in 10.0 mi SW 5.8 mph - N/A   Overcast
12:35 AM 44.8 °F 42.4 °F 40.1 °F 84% 29.93 in 10.0 mi SSW 4.6 mph - N/A   Overcast
12:55 AM 44.2 °F 41.8 °F 40.1 °F 85% 29.92 in 10.0 mi SSW 4.6 mph - N/A   Scattered Clouds
1:15 AM 43.9 °F 40.5 °F 40.1 °F 87% 29.92 in 7.0 mi South 5.8 mph - N/A   Clear
1:35 AM 44.1 °F 41.5 °F 40.5 °F 87% 29.92 in 10.0 mi SSW 4.6 mph - N/A Rain Light Rain
1:55 AM 44.1 °F - 41.0 °F 89% 29.91 in 10.0 mi Calm Calm - N/A Rain Light Rain
2:15 AM 44.1 °F 42.5 °F 41.2 °F 90% 29.91 in 7.0 mi SSW 3.5 mph - N/A Rain Light Rain
2:35 AM 44.4 °F - 41.7 °F 90% 29.93 in 7.0 mi Calm Calm - N/A Rain Rain
2:55 AM 44.2 °F 41.8 °F 42.1 °F 92% 29.94 in 7.0 mi WNW 4.6 mph - N/A Rain Light Rain
3:15 AM 44.1 °F - 42.1 °F 93% 29.93 in 7.0 mi Calm Calm - N/A   Mostly Cloudy
3:35 AM 44.1 °F - 42.4 °F 94% 29.92 in 5.0 mi Calm Calm - N/A   Clear
3:55 AM 43.9 °F - 42.3 °F 94% 29.92 in 5.0 mi Calm Calm - N/A Rain Light Rain
4:15 AM 43.3 °F 40.7 °F 41.9 °F 95% 29.90 in 4.0 mi NNE 4.6 mph - N/A Rain Light Rain
4:35 AM 43.7 °F - 42.1 °F 94% 29.91 in 4.0 mi Calm Calm - 0.01 in Rain Light Rain
4:55 AM 43.7 °F - 42.1 °F 94% 29.92 in 5.0 mi Calm Calm - 0.01 in Rain Light Rain
5:15 AM 43.2 °F - 41.9 °F 95% 29.92 in 3.0 mi Calm Calm - N/A Rain Light Rain
5:35 AM 43.3 °F - 42.3 °F 96% 29.93 in 2.5 mi Calm Calm - 0.01 in Rain Light Rain
5:55 AM 42.8 °F - 42.8 °F 100% 29.92 in 2.5 mi Calm Calm - N/A Rain Rain
6:15 AM 43.3 °F 38.6 °F 42.4 °F 97% 29.91 in 2.5 mi North 8.1 mph - 0.01 in Rain Light Rain
6:35 AM 43.7 °F - 42.8 °F 97% 29.92 in 4.0 mi Calm Calm - 0.01 in Rain Light Rain
6:55 AM 43.9 °F - 42.4 °F 95% 29.92 in 5.0 mi Calm Calm - 0.02 in Rain Light Rain
7:15 AM 43.7 °F - 42.3 °F 95% 29.92 in 2.5 mi Calm Calm - N/A Rain Light Rain
7:35 AM 43.7 °F 41.1 °F 42.4 °F 95% 29.91 in 1.8 mi NNE 4.6 mph - 0.01 in Rain Rain
7:55 AM 43.7 °F 39.1 °F 42.8 °F 97% 29.91 in 2.0 mi NNE 8.1 mph - 0.06 in Rain Rain
8:15 AM 43.9 °F 39.3 °F 42.8 °F 96% 29.90 in 2.5 mi NNE 8.1 mph - 0.07 in Rain Heavy Rain
8:35 AM 44.1 °F 39.5 °F 42.8 °F 95% 29.91 in 3.0 mi ESE 8.1 mph - 0.11 in Rain Rain
8:55 AM 44.1 °F 39.5 °F 42.8 °F 95% 29.91 in 2.5 mi ESE 8.1 mph - 0.13 in Rain Rain
9:15 AM 43.9 °F 38.3 °F 42.8 °F 96% 29.91 in 2.0 mi SE 10.4 mph - N/A Rain Light Rain
9:35 AM 44.2 °F 39.2 °F 43.2 °F 96% 29.91 in 2.5 mi SE 9.2 mph - 0.02 in Rain Light Rain
9:55 AM 44.8 °F 39.4 °F 43.7 °F 96% 29.91 in 3.0 mi SE 10.4 mph - 0.03 in Rain Light Rain
10:15 AM 45.0 °F 40.1 °F 43.7 °F 95% 29.90 in 2.5 mi SE 9.2 mph - N/A Rain Light Rain
10:35 AM 45.5 °F 41.3 °F 44.1 °F 95% 29.90 in 3.0 mi SE 8.1 mph - N/A   Overcast
10:55 AM 46.0 °F 43.9 °F 44.6 °F 95% 29.89 in 3.0 mi SE 4.6 mph - N/A Rain Light Rain
11:15 AM 46.4 °F 44.3 °F 44.8 °F 94% 29.88 in 3.0 mi ESE 4.6 mph - N/A   Overcast
11:35 AM 46.6 °F - 45.0 °F 94% 29.87 in 2.5 mi SE 4.6 mph - N/A   Overcast
11:55 AM 46.8 °F - 45.1 °F 94% 29.87 in 3.0 mi SE 4.6 mph - N/A   Overcast
12:15 PM 46.8 °F - 45.5 °F 95% 29.86 in 2.5 mi Calm Calm - N/A Rain Rain
12:35 PM 46.9 °F - 45.5 °F 95% 29.86 in 2.5 mi Calm Calm - N/A Rain Light Rain
12:55 PM 46.9 °F - 45.5 °F 95% 29.84 in 2.5 mi NNE 4.6 mph - N/A Rain Light Rain
1:15 PM 46.9 °F - 45.7 °F 95% 29.84 in 2.0 mi North 6.9 mph - N/A Rain Rain
1:35 PM 46.8 °F - 45.5 °F 95% 29.83 in 1.8 mi North 5.8 mph - 0.03 in Rain Rain
1:55 PM 46.8 °F - 45.7 °F 96% 29.82 in 1.8 mi NNE 8.1 mph - 0.04 in Rain Light Rain
2:15 PM 46.4 °F 41.9 °F 45.3 °F 96% 29.82 in 1.5 mi NNE 9.2 mph - N/A Rain Light Rain
2:35 PM 46.4 °F 42.4 °F 45.1 °F 95% 29.82 in 1.5 mi NNE 8.1 mph - N/A Rain Light Rain
2:55 PM 46.0 °F 41.0 °F 45.0 °F 96% 29.82 in 1.5 mi NNE 10.4 mph - 0.01 in Rain Rain
3:15 PM 45.9 °F 41.7 °F 44.8 °F 96% 29.82 in 1.5 mi NNE 8.1 mph - N/A Rain Light Rain
3:35 PM 45.9 °F 41.2 °F 44.8 °F 96% 29.83 in 1.5 mi NNE 9.2 mph - N/A Rain Rain
3:55 PM 45.7 °F 40.6 °F 44.6 °F 96% 29.82 in 1.2 mi NNE 10.4 mph - 0.01 in Rain Light Rain
4:15 PM 45.7 °F 40.6 °F 44.6 °F 96% 29.82 in 2.0 mi NNE 10.4 mph - 0.01 in Rain Light Rain
4:35 PM 46.4 °F 41.9 °F 44.6 °F 93% 29.82 in 2.0 mi NNE 9.2 mph - N/A Rain Rain
4:55 PM 45.5 °F 41.3 °F 44.6 °F 97% 29.82 in 2.0 mi NE 8.1 mph - 0.04 in Rain Rain
5:15 PM 45.5 °F 41.3 °F 44.6 °F 97% 29.82 in 2.0 mi NNE 8.1 mph - 0.01 in Rain Rain
5:35 PM 46.4 °F 42.4 °F 44.6 °F 93% 29.83 in 2.0 mi NNE 8.1 mph - N/A Rain Heavy Rain
5:55 PM 45.5 °F 41.3 °F 44.6 °F 97% 29.82 in 2.5 mi NE 8.1 mph - 0.05 in Rain Light Rain
6:15 PM 45.5 °F 41.3 °F 44.4 °F 96% 29.83 in 2.5 mi NE 8.1 mph - N/A   Light Drizzle
6:35 PM 45.5 °F 41.8 °F 44.2 °F 95% 29.83 in 2.5 mi NE 6.9 mph - N/A Rain Light Rain
6:55 PM 45.5 °F 41.8 °F 44.2 °F 95% 29.82 in 2.5 mi NE 6.9 mph - N/A Rain Light Rain
7:15 PM 45.5 °F 42.5 °F 44.2 °F 95% 29.82 in 2.0 mi NE 5.8 mph - N/A   Overcast
7:35 PM 45.5 °F 44.2 °F 44.2 °F 95% 29.83 in 2.5 mi NE 3.5 mph - N/A   Overcast
7:55 PM 45.5 °F 44.2 °F 44.6 °F 97% 29.85 in 2.5 mi North 3.5 mph - N/A Rain Rain
8:15 PM 45.5 °F 43.2 °F 44.2 °F 95% 29.84 in 2.0 mi NNE 4.6 mph - N/A   Light Drizzle
8:35 PM 45.5 °F 43.2 °F 44.6 °F 97% 29.84 in 1.8 mi NNE 4.6 mph - N/A   Light Drizzle
8:55 PM 45.5 °F 44.2 °F 44.6 °F 97% 29.84 in 1.5 mi NNE 3.5 mph - N/A   Light Drizzle
9:15 PM 45.5 °F 43.2 °F 44.6 °F 97% 29.83 in 1.2 mi North 4.6 mph - N/A   Light Drizzle
9:35 PM 45.1 °F 42.8 °F 44.2 °F 97% 29.83 in 1.2 mi NNE 4.6 mph - N/A   Light Drizzle
9:55 PM 45.1 °F 43.7 °F 44.2 °F 97% 29.82 in 1.5 mi NNE 3.5 mph - N/A   Overcast
10:15 PM 45.1 °F 43.7 °F 44.2 °F 97% 29.82 in 1.5 mi NE 3.5 mph - N/A   Overcast
10:35 PM 45.1 °F 42.8 °F 44.2 °F 97% 29.82 in 1.5 mi NNE 4.6 mph - N/A   Overcast
10:55 PM 45.1 °F 42.0 °F 44.2 °F 97% 29.81 in 1.8 mi NE 5.8 mph - N/A   Overcast
11:15 PM 45.0 °F 43.5 °F 44.1 °F 97% 29.82 in 1.8 mi ENE 3.5 mph - N/A   Overcast
11:35 PM 45.1 °F - 44.2 °F 97% 29.82 in 1.8 mi Calm Calm - N/A   Overcast
11:55 PM 45.1 °F - 44.2 °F 97% 29.82 in 1.8 mi Calm Calm - N/A   Overcast